Overview Statistics Trail Chart Weather Telemetry Raw packets
 

This is the latest recevied weather packets stored in our database for station/object GBTWP-2. If no packets are shown the sender has not sent any weather packets the latest 10 day(s).

<< 7 8 9 10 11 12 13 >>
Time Temp. Humidity Pressure Rain* Wind** Luminosity Snow
1788623520 24.44° C 66% 1019.1 hPa 0 mm - 162 W/m² -
1788623220 23.89° C 67% 1018.9 hPa 0 mm - 524 W/m² -
1788622919 23.89° C 67% 1019.1 hPa 0 mm - 523 W/m² -
1788622619 23.89° C 66% 1019.2 hPa 0 mm - 516 W/m² -
1788622320 24.44° C 66% 1018.9 hPa 0 mm - 510 W/m² -
1788622019 24.44° C 68% 1018.7 hPa 0 mm - 180 W/m² -
1788621720 24.44° C 67% 1018.7 hPa 0 mm - 490 W/m² -
1788621419 24.44° C 67% 1018.8 hPa 0 mm - 478 W/m² -
1788621120 23.33° C 67% 1018.9 hPa 0 mm - 473 W/m² -
1788620820 23.89° C 67% 1018.8 hPa 0 mm - 462 W/m² -
1788620520 23.33° C 70% 1018.7 hPa 0 mm - 451 W/m² -
1788620220 23.33° C 71% 1018.8 hPa 0 mm - 443 W/m² -
1788619919 22.78° C 74% 1018.6 hPa 0 mm - 430 W/m² -
1788619619 22.22° C 75% 1018.8 hPa 0 mm - 380 W/m² -
1788619320 21.67° C 76% 1018.7 hPa 0 mm - 374 W/m² -
1788619019 21.67° C 76% 1018.7 hPa 0 mm - 169 W/m² -
1788618720 22.22° C 75% 1018.7 hPa 0 mm - 452 W/m² -
1788618420 22.22° C 74% 1018.8 hPa 0 mm - 288 W/m² -
1788618120 22.22° C 76% 1018.7 hPa 0 mm - 403 W/m² -
1788617820 21.67° C 77% 1018.7 hPa 0 mm - 385 W/m² -
1788617520 21.67° C 76% 1018.7 hPa 0 mm - 226 W/m² -
1788617220 21.11° C 78% 1018.8 hPa 0 mm - 241 W/m² -
1788616920 21.11° C 80% 1018.8 hPa 0 mm - 218 W/m² -
1788616620 21.11° C 82% 1018.8 hPa 0 mm - 205 W/m² -
1788616319 20.56° C 83% 1018.7 hPa 0 mm - 165 W/m² -

* Rain latest hour (hover to see other rain measurements)
** Current wind speed in m/s (hover to see current wind gust speed)